TimeEDT,TemperatureF,Dew PointF,Humidity,Sea Level PressureIn,VisibilityMPH,Wind Direction,Wind SpeedMPH,Gust SpeedMPH,PrecipitationIn,Events,Conditions,WindDirDegrees,DateUTC
1:00 AM,65.8,54.7,67,29.91,-9999.0,South,8.1,-,N/A,,Unknown,190,2012-10-26 05:00:00
2:00 AM,64,55,64,29.91,,South,6.9,,,,,190,2012-10-26 06:00:00
2:00 AM,64.4,54.9,71,29.91,-9999.0,South,6.9,-,N/A,,Unknown,190,2012-10-26 06:00:00
3:00 AM,64.8,55.0,71,29.92,-9999.0,SSW,10.4,18.4,N/A,,Unknown,200,2012-10-26 07:00:00
4:00 AM,63.5,54.7,73,29.92,-9999.0,SSW,10.4,-,N/A,,Unknown,200,2012-10-26 08:00:00
5:00 AM,63.0,54.3,73,29.94,-9999.0,SSW,11.5,17.3,N/A,,Unknown,200,2012-10-26 09:00:00
6:00 AM,63.0,54.0,72,29.94,-9999.0,SSW,11.5,23.0,N/A,,Unknown,200,2012-10-26 10:00:00
7:00 AM,63.9,53.4,69,29.94,-9999.0,SSW,13.8,24.2,N/A,,Unknown,210,2012-10-26 11:00:00
8:00 AM,63.3,54.0,71,29.95,-9999.0,SSW,12.7,-,N/A,,Unknown,200,2012-10-26 12:00:00
9:00 AM,64.6,54.3,69,29.98,-9999.0,SW,10.4,-,N/A,,Unknown,220,2012-10-26 13:00:00
10:00 AM,67.5,55.4,65,29.99,-9999.0,SW,9.2,-,N/A,,Unknown,220,2012-10-26 14:00:00
11:00 AM,69.1,53.6,58,30.01,-9999.0,WSW,12.7,20.7,N/A,,Unknown,250,2012-10-26 15:00:00
12:00 PM,61.9,52.9,72,30.03,-9999.0,NW,9.2,-,N/A,,Unknown,310,2012-10-26 16:00:00
1:00 PM,55.4,49.5,80,30.06,-9999.0,NW,8.1,-,N/A,,Unknown,320,2012-10-26 17:00:00
2:00 PM,56,48,67,30.06,,North,10.4,,,,,350,2012-10-26 18:00:00
2:00 PM,55.6,48.0,76,30.06,-9999.0,North,10.4,-,N/A,,Unknown,350,2012-10-26 18:00:00
3:00 PM,51.8,46.6,82,30.09,-9999.0,North,8.1,-,N/A,,Unknown,350,2012-10-26 19:00:00
4:00 PM,50.5,45.9,84,30.10,-9999.0,North,8.1,-,N/A,,Unknown,10,2012-10-26 20:00:00
5:00 PM,50.2,45.0,82,30.11,-9999.0,North,9.2,-,N/A,,Unknown,350,2012-10-26 21:00:00
6:00 PM,49.3,45.1,86,30.12,-9999.0,North,5.8,-,N/A,,Unknown,350,2012-10-26 22:00:00
7:00 PM,48.6,44.8,87,30.15,-9999.0,NNW,9.2,-,N/A,,Unknown,340,2012-10-26 23:00:00
8:00 PM,48,46,89,30.17,,NW,4.6,,,,,320,2012-10-27 00:00:00
8:00 PM,48.0,45.7,92,30.17,-9999.0,NW,4.6,-,N/A,,Unknown,320,2012-10-27 00:00:00
9:00 PM,47.8,44.6,89,30.16,-9999.0,NNW,8.1,-,N/A,,Unknown,340,2012-10-27 01:00:00
10:00 PM,48.0,43.9,86,30.18,-9999.0,North,4.6,-,N/A,,Unknown,350,2012-10-27 02:00:00
11:00 PM,47.8,42.6,82,30.17,-9999.0,North,6.9,-,N/A,,Unknown,10,2012-10-27 03:00:00